logo Eve Who17,730,535 Characters
835,954 Corporations
9,249 Alliances

Home Pilots Corporations Alliances FAQ 

corp logo
alli logo
character image
Character:MarkovRamius
Corporation:Blueprint Haus
Alliance:Blades of Grass
Sec. Status:5.0
Links:zKillboard
EveSkillBoard
Eve-Search
Last Updated: 2019-07-22 11:48:04 | 857322833
Corp. History
 NameJoinedLeft
corp logoBlueprint Haus2018/12/20 19:56
corp logoPerkone2018/12/04 16:332018/12/20 19:55
corp logoOut of Focus2018/11/13 17:202018/12/04 16:32
corp logoThe Walking Deads2018/10/29 15:362018/11/13 17:19
corp logoNew Alliance Who Dis2018/09/02 01:532018/10/29 15:35
corp logoPagids Legion2018/07/06 02:452018/09/02 01:52
corp logoPerkone2018/06/21 13:082018/07/06 02:44
corp logoNew Alliance Who Dis2018/06/15 21:142018/06/21 13:07
corp logoPerkone2018/06/15 21:142018/06/15 21:13
corp logoThe Mythically Intoxicated2018/02/20 04:262018/06/15 21:13
corp logoPerkone2018/02/20 04:242018/02/20 04:25
corp logoBlueprint Haus2017/09/07 03:432018/02/20 04:23
corp logoPerkone2017/09/07 03:422017/09/07 03:42
corp logoAustralian Mining and industry Corp2016/04/17 04:272017/09/07 03:41
corp logoPerkone2016/04/05 01:402016/04/17 04:26
corp logo30plus2015/08/26 03:302016/04/05 01:39
corp logoSilver Guardians2015/05/19 21:082015/08/26 03:29
corp logoFull Spectrum Inc2014/11/30 17:052015/05/19 21:07
corp logoPerkone2014/11/22 17:262014/11/30 17:04
corp logoX-Prot2014/01/23 16:432014/11/22 17:25
corp logoPerkone2014/01/22 05:502014/01/23 16:42
corp logoRD October2011/12/27 01:112014/01/22 05:49
corp logoCelerna2011/11/24 05:472011/12/27 01:10
corp logoPerkone2011/10/06 03:422011/11/24 05:46
corp logoTDK Industries2011/09/21 15:242011/10/06 03:41
corp logoPerkone2011/09/21 06:222011/09/21 15:23
corp logoGLOBAL DISSENSION2011/07/26 02:562011/09/21 06:21
corp logoPerkone2011/07/24 00:142011/07/26 02:55
corp logoPerpetual ISK2011/07/22 17:332011/07/24 00:13
corp logoPerkone2011/07/22 14:222011/07/22 17:32
corp logoNo Compromise2011/06/15 21:092011/07/22 14:21
corp logoPerkone2011/06/12 02:062011/06/15 21:08
corp logoPink Unicorn Legion2011/06/01 03:112011/06/12 02:05
corp logoPerkone2011/06/01 02:402011/06/01 03:10
corp logoNorse'Storm Battle Group2011/05/12 23:152011/06/01 02:39
corp logoPerkone2011/05/12 20:582011/05/12 23:14
corp logoImperial Strippers2011/05/10 09:452011/05/12 20:57
corp logoCaLiARr Holding Corp2011/05/06 05:312011/05/10 09:44
corp logoPerkone2011/05/06 01:362011/05/06 05:30
corp logoImperial Strippers2011/04/27 17:252011/05/06 01:35
corp logoPerkone2011/04/27 17:242011/04/27 17:24
corp logoRD October2011/04/20 03:062011/04/27 17:23
corp logoPerkone2011/04/15 02:392011/04/20 03:05
corp logoKinetic Cartel2011/02/11 15:152011/04/15 02:38
corp logoPerkone2011/02/11 01:072011/02/11 15:14
corp logoRD October2011/02/04 00:582011/02/11 01:06
corp logoPerkone2011/02/03 23:372011/02/04 00:57
corp logoSmegnet Incorporated2011/01/05 01:532011/02/03 23:36
corp logoPerkone2011/01/04 05:512011/01/05 01:52
corp logoSmegnet Incorporated2010/12/15 16:242011/01/04 05:50
corp logoPerkone2010/12/15 16:222010/12/15 16:23
corp logoVeteran Defense Initiative2010/08/04 17:072010/12/15 16:21
corp logoPerkone2010/07/12 17:102010/08/04 17:06
corp logoTRX inc.2010/06/12 14:502010/07/12 17:09
corp logoPerkone2010/06/09 16:492010/06/12 14:49
corp logoAll Your Machariel Belong to Ham2010/06/02 05:482010/06/09 16:48
corp logoPerkone2010/03/24 21:522010/06/02 05:47
corp logoBlack Rising Empire2009/12/16 05:282010/03/24 21:51
corp logoState Protectorate2009/12/14 18:372009/12/16 05:27
corp logoSchool of Applied Knowledge2009/09/23 20:142009/12/14 18:36


Any pilots, corporations, or alliances that relate to actual people or entities are purely coincidental.
7q/34ms Disclaimer A / C Brought to you by: Squizz Caphinator Forum Thread
EVE Online and the EVE logo are the registered trademarks of CCP hf. All rights are reserved worldwide. All other trademarks are the property of their respective owners. EVE Online, the EVE logo, EVE and all associated logos and designs are the intellectual property of CCP hf. All artwork, screenshots, characters, vehicles, storylines, world facts or other recognizable features of the intellectual property relating to these trademarks are likewise the intellectual property of CCP hf. CCP hf. has granted permission to evewho.com to use EVE Online and all associated logos and designs for promotional and information purposes on its website but does not endorse, and is not in any way affiliated with, evewho.com. CCP is in no way responsible for the content on or functioning of this website, nor can it be liable for any damage arising from the use of this website.